Flag for Poland Weather past 2 weeks in Bielsko-Biała, Poland

Now
42 °F

Light rain. Overcast.


Feels Like: 40 °F
Forecast: 31 / 42 °F
Wind: 3 mph from East

Location: Katowice

Current Time: Feb 27, 2015 at 1:33:52 PM

Latest Report: Feb 27, 2015 at 12:00 PM


Visibility: 5 mi

Pressure: 29.97 "Hg

Humidity: 86%

Dew point: 38 °F

Location of Bielsko-BiałaLocation

Historic Weather in Bielsko-Biała — Graph

°F

Bielsko-Biała temperature yesterday

Maximum temperature yesterday: 42 °F (at 3:00 PM)
Minimum temperature yesterday: 34 °F (at 6:00 AM)
Average temperature yesterday: 39 °F

Past Weeks' High & Low Weather Summary

 TemperatureHumidityPressure
High52 °F (Feb 23, 3:00 PM)97% (Feb 27, 2:00 AM)30.76 "Hg (Feb 27, 2:00 AM)
Low20 °F (Feb 14, 7:00 AM)33% (Feb 21, 12:00 PM)29.57 "Hg (Feb 23, 5:00 PM)
Average36 °F77%30.14 "Hg
* Reported Feb 12 12:00 Noon — Feb 27 12:00 Noon, Bielsko-Biała, Weather by CustomWeather, © 2015

Note: Actual official high and low records may vary slightly from our data, if they occured in-between our weather recording intervals... More about our weather records

Advertising

Bielsko-Biała weather history for previous 24 hours

 ConditionsComfort  
Time TempWeatherWind HumidityBarometerVisibility
12:00 PM
Fri, Feb 27
42 °FLight rain. Overcast.3 mph86%29.97 "Hg5 mi
11:00 AM41 °FFog.3 mph89%29.98 "Hg4 mi
10:00 AM40 °FFog.2 mph90%29.99 "Hg4 mi
9:00 AM40 °FFog.3 mph91%29.99 "Hg3 mi
8:00 AM39 °FFog.3 mph92%30.00 "Hg2 mi
7:00 AM38 °FFog.2 mph96%30.00 "Hg2 mi
6:00 AM38 °FFog.2 mph97%30.00 "Hg2 mi
5:00 AM38 °FFog.3 mph97%30.00 "Hg1 mi
2:00 AM39 °FFog.2 mph97%30.03 "Hg1 mi
1:00 AM39 °FFog.2 mph96%30.05 "Hg1 mi
12:00 AM40 °FFog.1 mph96%30.07 "Hg1 mi
11:00 PM
Thu, Feb 26
40 °FFog.1 mph96%30.09 "Hg1 mi
10:00 PM40 °FFog.1 mph96%30.10 "Hg1 mi
9:00 PM40 °FFog.1 mph95%30.10 "Hg1 mi
8:00 PM40 °FFog.1 mph95%30.11 "Hg2 mi
7:00 PM41 °FOvercast.1 mph93%30.13 "Hg2 mi
6:00 PM41 °FFog.1 mph90%30.13 "Hg3 mi
5:00 PM41 °FFog.1 mph90%30.13 "Hg4 mi
4:00 PM42 °FFog.1 mph89%30.13 "Hg5 mi
3:00 PM42 °FFog.1 mph89%30.13 "Hg5 mi
2:00 PM41 °FFog.1 mph90%30.14 "Hg5 mi
1:00 PM40 °FFog.1 mph90%30.15 "Hg5 mi
Weather by CustomWeather, © 2015

See weather overviewHow to use our weather pages